User: anonymous   Login
Location: Simi Valley
(34.2690°N, 118.7810°W)
Time: 23:33:17
(UTC-07:00)
Language:

TITAN 4B R/B - Orbit

View from above orbital plane
View from above orbital plane
View from above satellite
View from above satellite

Ground track
Ground track

The orbit data is extracted from the following two-line orbital elements,

1 28647U 05016B   15102.86005529 0.00005200  00000-0  32789-3 0    05
2 28647  56.9966   4.3484 0123376 331.8557  28.1442 15.02513919    04
Epoch (UTC): 12 April 2015 20:38:28
Eccentricity: 0.0123376
inclination: 56.9966°
perigee height: 473 km
apogee height: 645 km
right ascension of ascending node: 4.3484°
argument of perigee: 331.8557°
revolutions per day: 15.02513919
mean anomaly at epoch: 28.1442°
orbit number at epoch: 0

The dashed part of the orbit path shows where the satellite is in the earth's shadow,  

DLR